Home > Weather > Bunbury > Past weeks

Flag for Australia Past Weather in Bunbury, Western Australia, Australia — Yesterday and Last 2 Weeks

Now
44 °F

Quite cool.


Feels Like: 44 °F
Forecast: 54 / 61 °F
Wind: No wind

Location: Bunbury

Current Time: May 29, 2016 at 4:19:12 AM

Latest Report: May 29, 2016 at 3:00 AM


Visibility: N/A

Pressure: 30.04 "Hg

Humidity: 94%

Dew Point: 42 °F

Location of BunburyLocation

Past Weather in Bunbury — Graph

°F

Bunbury Temperature Yesterday

Maximum temperature yesterday: 65 °F (at 2:00 PM)
Minimum temperature yesterday: 49 °F (at 11:00 PM)
Average temperature yesterday: 60 °F

High & Low Weather Summary for the Past Weeks

 TemperatureHumidityPressure
High69 °F (May 14, 12:00 PM)97% (May 18, 9:00 AM)30.22 "Hg (May 18, 9:00 AM)
Low39 °F (May 27, 5:00 AM)52% (May 26, 5:00 PM)29.26 "Hg (May 21, 5:00 AM)
Average59 °F77%29.96 "Hg
* Reported May 14 3:00 AM — May 29 3:00 AM, Bunbury, Weather by CustomWeather, © 2016

Note: Actual official high and low records may vary slightly from our data, if they occured in-between our weather recording intervals... More about our weather records

Advertising

Bunbury Weather History for the Previous 24 Hours

Scroll right to see more
 ConditionsComfort  
Time TempWeatherWind HumidityBarometerVisibility
3:00 AM
Sun, May 29
44 °FQuite cool.No wind94%30.04 "HgN/A
2:00 AM45 °FCool.No wind94%30.03 "HgN/A
12:00 AM47 °FCool.No wind91%30.03 "HgN/A
11:00 PM
Sat, May 28
49 °FCool.3 mph88%30.04 "HgN/A
9:00 PM51 °FCool.2 mph84%30.02 "HgN/A
8:00 PM50 °FCool.No wind85%30.01 "HgN/A
6:00 PM58 °FCool.6 mph67%29.98 "HgN/A
5:00 PM60 °FCool.8 mph65%29.96 "HgN/A
3:00 PM64 °FMild.10 mph61%29.93 "HgN/A
2:00 PM65 °FMild.12 mph60%29.91 "HgN/A
12:00 PM64 °FMild.13 mph65%29.92 "HgN/A
11:00 AM64 °FMild.8 mph68%29.94 "HgN/A
9:00 AM63 °FMild.8 mph68%29.93 "HgN/A
8:00 AM60 °FCool.7 mph76%29.93 "HgN/A
6:00 AM59 °FCool.8 mph78%29.89 "HgN/A
5:00 AM62 °FCool.9 mph68%29.88 "HgN/A
Weather by CustomWeather, © 2016

See weather overviewHow to use our weather pages